Location: Bukit Temadau
(2.2833°N, 113.7000°E)
Time: 03:07:37
(UTC+00:00)

Daily predictions for brighter satellites

Satellite Brightness Start Highest point End
(mag) Time Altitude Azimuth Time Altitude Azimuth Time Altitude Azimuth
NOSS 2-1 (E) 4.5 10:50:17 10° S 10:54:54 29° ESE 10:58:26 10° ENE
CZ-2C R/B 3.3 10:49:57 10° N 10:55:02 61° WNW 11:00:12 10° SSW
Cosmos 2084 3.3 10:55:02 10° SSW 10:59:01 61° ESE 11:02:58 10° NNE
Cosmos 2082 Rocket 3.6 10:54:59 10° SW 11:00:17 44° WNW 11:05:36 10° N
CZ-4B R/B 1.4 10:58:55 10° N 11:02:09 79° W 11:05:18 10° SSW
PSLV R/B 4.1 11:00:50 10° NNE 11:04:53 53° ESE 11:08:59 10° S
Spot 2 4.3 11:01:31 10° SSE 11:06:12 77° ENE 11:11:08 10° N
USA 307 3.4 11:06:36 10° NNW 11:10:36 41° ENE 11:14:24 11° SE
Cosmos 2034 Rocket 4.0 11:05:50 10° N 11:12:10 83° E 11:18:32 10° S
YAOGAN 1 3.2 11:14:06 10° SE 11:18:04 36° ENE 11:22:01 10° NNE
CZ-4 R/B 4.4 11:14:35 10° S 11:18:43 89° WSW 11:22:49 10° NNW
NOSS 3-2 (A) 4.4 11:13:47 10° NNW 11:22:29 85° WSW 11:31:17 10° SSE
USA 305 2.8 11:18:39 10° NNW 11:22:48 71° ENE 11:26:20 14° SE
Cosmos 1812 Rocket 4.3 11:20:16 10° NNW 11:24:36 57° W 11:28:56 10° S
Centaur Rocket 4.2 11:25:28 10° SSW 11:26:21 12° S 11:27:14 10° SSE
Cosmos 1125 Rocket 3.6 11:22:15 10° N 11:27:25 56° ENE 11:32:34 10° SSE
USA 308 2.8 11:23:44 10° NNW 11:27:56 71° ENE 11:31:06 17° SE
Cosmos 1689 Rocket 2.5 11:25:33 10° NE 11:28:02 32° E 11:29:53 15° SSE
Cosmos 1680 Rocket 4.4 11:24:03 10° SSE 11:28:27 26° ESE 11:32:47 10° NE
HETE-2 4.5 11:26:25 10° W 11:30:30 72° S 11:32:56 23° E
Cosmos 1825 4.4 11:32:35 10° SSW 11:35:49 28° W 11:39:04 10° NNW
NOSS 2-1 (C) 4.2 11:34:03 10° SSW 11:39:13 60° WNW 11:43:03 10° NNE
CENTAUR R/B 3.3 11:31:48 10° NNW 11:40:47 88° WSW 11:49:16 10° SSE
Okean-O 2.9 11:39:27 21° SE 11:42:05 45° ENE 11:46:18 10° N
Cosmos 1076 Rocket 3.6 11:38:47 10° S 11:42:58 52° E 11:47:10 10° NNE
ARIANE 5 R/B 4.0 11:14:41 10° W 11:44:07 81° N 11:46:50 26° E
CZ-4 R/B 1.6 11:40:23 10° S 11:44:32 77° W 11:48:42 10° NNW
H-2A R/B 3.5 11:39:36 10° S 11:44:37 40° WSW 11:49:32 10° NNW
CSL-04 Rocket 4.4 11:43:07 25° ESE 11:45:07 33° ENE 11:49:54 10° NNE
Cosmos 2058 4.2 11:41:17 10° SSW 11:45:13 41° W 11:49:08 10° NNW
USA 306 3.5 11:43:16 10° NW 11:47:25 53° WSW 11:50:07 20° SSE
Cosmos 1634 Rocket 3.9 11:41:50 10° N 11:47:58 70° E 11:54:06 10° S
ATLAS 3B CENTAUR R/B 3.5 11:46:16 10° WSW 11:49:15 21° SSW 11:52:00 15° SSE
Cosmos 1980 Rocket 4.2 11:48:51 10° NE 11:49:34 11° NE 11:49:34 11° NE
GPS 2-17 Rocket1 3.0 11:46:55 10° WSW 11:51:35 74° SSE 11:53:27 36° E
ARGOS 3.7 11:48:56 10° S 11:54:15 59° WSW 11:59:34 10° NNW
HJ-1C 3.5 11:53:11 27° S 11:54:48 68° WSW 11:58:02 10° NNW
